Weather History for Fort Collins, CO

Change the Weather History Date:

Sunday, October 26, 2014

  Actual Average Record
Temperature  
Mean Temperature 61 °F -  
Max Temperature 78 °F 54 °F 78 °F (2014)
Min Temperature 44 °F 31 °F 6 °F (1997)
Degree Days  
Heating Degree Days 4    
Growing Degree Days 11 (Base 50)    
Moisture  
Dew Point 32 °F    
Average Humidity 34    
Maximum Humidity 58    
Minimum Humidity 16    
Precipitation  
Precipitation 0.00 in - - ()
Sea Level Pressure  
Sea Level Pressure 29.82 in    
Wind  
Wind Speed 7 mph (NNW)    
Max Wind Speed 18 mph    
Max Gust Speed 25 mph    
Visibility 10 miles    
Events      
Averages and records for this station are not official NWS values.
T = Trace of Precipitation, MM = Missing Value Source: NWS Daily Summary

Daily Weather History Graph

Daily Weather History Graph

Search for Another Location

Airport:

Trip Planner

Search our weather history database for the weather conditions in past years. The results will help you decide how hot, cold, wet, or windy it might be!

Date:

Astronomy

Oct. 26, 2014 Rise Set
Actual Time 7:23 AM MDT 6:04 PM MDT
Civil Twilight 6:55 AM MDT 6:32 PM MDT
Nautical Twilight 6:23 AM MDT 7:04 PM MDT
Astronomical Twilight 5:51 AM MDT 7:35 PM MDT
Moon 10:04 AM MDT (10/26) 8:17 PM MDT (10/26)
Length of Visible Light 11h 37m
Length of Day
10h 41m
Waxing Crescent, 9% of the Moon is Illuminated
Oct 26
Waxing Crescent
Oct 30
First Quarter
Nov 6
Full
Nov 14
Last Quarter
Nov 22
New

Hourly Weather History & Observations

Time (MDT) Temp. Windchill Dew Point Humidity Pressure Visibility Wind Dir Wind Speed Gust Speed Precip Events Conditions
12:15 AM 50.0 °F - 28.4 °F 43% 29.97 in 10.0 mi North 6.9 mph - N/A   Clear
12:35 AM 50.0 °F - 28.4 °F 43% 29.96 in 10.0 mi North 5.8 mph - N/A   Clear
12:55 AM 51.8 °F - 28.4 °F 41% 29.95 in 10.0 mi North 3.5 mph - N/A   Clear
1:15 AM 44.6 °F 41.4 °F 26.6 °F 49% 29.95 in 10.0 mi North 5.8 mph - N/A   Clear
1:35 AM 48.2 °F - 28.4 °F 46% 29.94 in 10.0 mi North 8.1 mph - N/A   Clear
1:55 AM 44.6 °F - 28.4 °F 53% 29.93 in 10.0 mi Calm Calm - N/A   Clear
2:15 AM 48.2 °F - 28.4 °F 46% 29.93 in 10.0 mi Calm Calm - N/A   Clear
2:35 AM 46.4 °F 43.5 °F 30.2 °F 53% 29.92 in 10.0 mi SE 5.8 mph - N/A   Clear
2:55 AM 51.8 °F - 30.2 °F 44% 29.92 in 10.0 mi SE 9.2 mph - N/A   Clear
3:15 AM 48.2 °F - 28.4 °F 46% 29.92 in 10.0 mi West 4.6 mph - N/A   Clear
3:35 AM 53.6 °F - 28.4 °F 38% 29.90 in 10.0 mi SE 8.1 mph - N/A   Clear
3:55 AM 53.6 °F - 28.4 °F 38% 29.90 in 10.0 mi Calm Calm - N/A   Clear
4:15 AM 62.6 °F - 32.0 °F 32% 29.89 in 10.0 mi SW 8.1 mph - N/A   Clear
4:35 AM 64.4 °F - 33.8 °F 32% 29.88 in 10.0 mi South 9.2 mph 23.0 mph N/A   Clear
4:55 AM 55.4 °F - 32.0 °F 41% 29.89 in 10.0 mi North 8.1 mph - N/A   Clear
5:15 AM 51.8 °F - 30.2 °F 44% 29.89 in 10.0 mi Calm Calm - N/A   Clear
5:35 AM 53.6 °F - 30.2 °F 41% 29.87 in 10.0 mi NNE 5.8 mph - N/A   Clear
5:55 AM 55.4 °F - 32.0 °F 41% 29.87 in 10.0 mi Calm Calm - N/A   Clear
6:15 AM 51.8 °F - 30.2 °F 44% 29.87 in 10.0 mi NNE 8.1 mph - N/A   Clear
6:35 AM 59.0 °F - 32.0 °F 36% 29.86 in 10.0 mi NW 9.2 mph - N/A   Clear
6:55 AM 55.4 °F - 30.2 °F 38% 29.86 in 10.0 mi NE 3.5 mph - N/A   Clear
7:15 AM 55.4 °F - 32.0 °F 41% 29.86 in 10.0 mi West 5.8 mph - N/A   Clear
7:35 AM 66.2 °F - 33.8 °F 30% 29.85 in 10.0 mi West 15.0 mph 24.2 mph N/A   Clear
7:55 AM 64.4 °F - 33.8 °F 32% 29.85 in 10.0 mi South 10.4 mph - N/A   Clear
8:15 AM 48.2 °F - 32.0 °F 54% 29.86 in 10.0 mi South 6.9 mph - N/A   Clear
8:35 AM 48.2 °F - 33.8 °F 58% 29.86 in 10.0 mi WSW 6.9 mph - N/A   Clear
8:55 AM 53.6 °F - 33.8 °F 47% 29.86 in 10.0 mi Calm Calm - N/A   Clear
9:15 AM 53.6 °F - 35.6 °F 51% 29.87 in 10.0 mi SSE 5.8 mph - N/A   Clear
9:35 AM 55.4 °F - 33.8 °F 44% 29.87 in 10.0 mi South 5.8 mph - N/A   Clear
9:55 AM 57.2 °F - 35.6 °F 44% 29.87 in 10.0 mi Calm Calm - N/A   Clear
10:15 AM 66.2 °F - 37.4 °F 35% 29.86 in 10.0 mi NNE 3.5 mph - N/A   Clear
10:35 AM 71.6 °F - 35.6 °F 27% 29.85 in 10.0 mi West 8.1 mph - N/A   Clear
10:55 AM 71.6 °F - 35.6 °F 27% 29.84 in 10.0 mi West 9.2 mph - N/A   Clear
11:15 AM 71.6 °F - 35.6 °F 27% 29.84 in 10.0 mi South 9.2 mph - N/A   Clear
11:35 AM 69.8 °F - 37.4 °F 31% 29.83 in 10.0 mi SE 10.4 mph - N/A   Clear
11:55 AM 73.4 °F - 37.4 °F 27% 29.83 in 10.0 mi East 8.1 mph - N/A   Clear
12:15 PM 75.2 °F - 35.6 °F 24% 29.82 in 10.0 mi SE 3.5 mph - N/A   Clear
12:35 PM 75.2 °F - 33.8 °F 22% 29.81 in 10.0 mi East 3.5 mph - N/A   Clear
12:55 PM 73.4 °F - 32.0 °F 22% 29.79 in 10.0 mi Calm Calm - N/A   Clear
1:15 PM 77.0 °F - 33.8 °F 21% 29.79 in 10.0 mi Calm Calm - N/A   Clear
1:35 PM 77.0 °F - 32.0 °F 19% 29.78 in 10.0 mi Calm Calm - N/A   Clear
1:55 PM 75.2 °F - 35.6 °F 24% 29.77 in 10.0 mi Calm Calm - N/A   Clear
2:15 PM 75.2 °F - 35.6 °F 24% 29.77 in 10.0 mi South 4.6 mph - N/A   Clear
2:35 PM 77.0 °F - 33.8 °F 21% 29.76 in 10.0 mi WSW 6.9 mph - N/A   Clear
2:55 PM 78.8 °F - 30.2 °F 17% 29.75 in 10.0 mi WSW 12.7 mph 20.7 mph N/A   Clear
3:15 PM 77.0 °F - 28.4 °F 17% 29.75 in 10.0 mi West 10.4 mph - N/A   Clear
3:35 PM 78.8 °F - 28.4 °F 16% 29.75 in 10.0 mi West 15.0 mph 18.4 mph N/A   Clear
3:55 PM 77.0 °F - 26.6 °F 16% 29.74 in 10.0 mi WSW 18.4 mph 25.3 mph N/A   Clear
4:15 PM 77.0 °F - 26.6 °F 16% 29.74 in 10.0 mi WSW 17.3 mph 21.9 mph N/A   Clear
4:35 PM 75.2 °F - 26.6 °F 17% 29.74 in 10.0 mi West 17.3 mph 25.3 mph N/A   Clear
4:55 PM 75.2 °F - 26.6 °F 17% 29.74 in 10.0 mi West 12.7 mph 20.7 mph N/A   Clear
5:15 PM 73.4 °F - 28.4 °F 19% 29.73 in 10.0 mi West 10.4 mph - N/A   Clear
5:35 PM 71.6 °F - 28.4 °F 20% 29.73 in 10.0 mi WNW 10.4 mph - N/A   Clear
5:55 PM 69.8 °F - 28.4 °F 21% 29.73 in 10.0 mi WNW 11.5 mph - N/A   Clear
6:15 PM 68.0 °F - 26.6 °F 21% 29.73 in 10.0 mi WNW 10.4 mph - N/A   Clear
6:35 PM 64.4 °F - 30.2 °F 28% 29.74 in 10.0 mi WNW 6.9 mph - N/A   Clear
6:55 PM 62.6 °F - 30.2 °F 30% 29.74 in 10.0 mi SE 5.8 mph - N/A   Clear
7:15 PM 66.2 °F - 28.4 °F 24% 29.75 in 10.0 mi ESE 3.5 mph - N/A   Clear
7:35 PM 64.4 °F - 26.6 °F 24% 29.75 in 10.0 mi NE 3.5 mph - N/A   Clear
7:55 PM 62.6 °F - 30.2 °F 30% 29.76 in 10.0 mi East 10.4 mph - N/A   Clear
8:15 PM 62.6 °F - 32.0 °F 32% 29.76 in 10.0 mi ENE 12.7 mph - N/A   Clear
8:35 PM 62.6 °F - 33.8 °F 34% 29.76 in 10.0 mi NE 15.0 mph - N/A   Clear
8:55 PM 62.6 °F - 30.2 °F 30% 29.77 in 10.0 mi NE 11.5 mph - N/A   Clear
9:15 PM 62.6 °F - 33.8 °F 34% 29.77 in 10.0 mi NE 15.0 mph - N/A   Clear
9:35 PM 60.8 °F - 33.8 °F 36% 29.77 in 10.0 mi NE 8.1 mph - N/A   Clear
9:55 PM 57.2 °F - 33.8 °F 41% 29.78 in 10.0 mi NNW 6.9 mph - N/A   Clear
10:15 PM 57.2 °F - 35.6 °F 44% 29.77 in 10.0 mi ENE 8.1 mph - N/A   Clear
10:35 PM 55.4 °F - 35.6 °F 47% 29.77 in 10.0 mi ENE 6.9 mph - N/A   Clear
10:55 PM 55.4 °F - 35.6 °F 47% 29.77 in 10.0 mi NE 9.2 mph - N/A   Clear
11:15 PM 55.4 °F - 35.6 °F 47% 29.75 in 10.0 mi ENE 11.5 mph - N/A   Partly Cloudy
11:35 PM 55.4 °F - 37.4 °F 51% 29.78 in 10.0 mi North 6.9 mph - N/A   Partly Cloudy
11:55 PM 53.6 °F - 37.4 °F 54% 29.80 in 10.0 mi South 8.1 mph - N/A   Scattered Clouds